Content
SEND FEEDBACK

Daily
Averages
Monthly
Summary
United States of America

GAMERCO, NEW MEXICO


Home > North America > United States > New Mexico
Elevation: 6560 feet     Latitude: 35 31N     Longitude: 108 45W

WEATHER
 
SELECT A DAY
Number of Records: 182,462;   Date Range: 1/1/95 - 8/12/14
 
SHARE

PRINT THIS DATA

[ ← Previous Day ]
WEATHER ALMANAC - FEBRUARY 13, 2013
[ Next Day → ]
[ °C ]   °F
Weather ElementAverageHighLow
Temperature30.4 °F46 °F (2:53 pm)12.9 °F (5:53 am)
Dewpoint14.2 °F21 °F (2:53 pm)5 °F (5:53 am)
Humidity53.4 %71 % (5:53 am)34 % (12:53 pm)
Barometer30.25 in30.35 in (7:53 am)30.15 in (2:53 pm)
Wind Speed3.1 mph9.2 mph (2:53 pm)
Weather ElementAverage
Visibility10 mi
Wind DirectionESE (103 °)

Weather ElementTotal
Precipitation---
Heating Degree Days35.6 (Base 65)
Averaged from 23 records on February 13, 2013
WEATHER CONDITIONS BREAKOUT
WIND DIRECTION BREAKOUT
WEATHER BY HOUR - FEBRUARY 13, 2013
[ °C ]   °F
Local TimeTemperatureDewpointHumidityBarometerVisibilityWind DirectionWind SpeedGust SpeedPrecipitationEventsConditions
1:53 AM17.1 °F7.0 °F65 %30.30 in10.0 miCalmClear
2:53 AM18.0 °F8.1 °F65 %30.26 in10.0 miCalmClear
3:53 AM17.1 °F8.1 °F68 %30.26 in10.0 miCalmClear
4:53 AM17.1 °F8.1 °F68 %30.27 in10.0 miCalmClear
5:53 AM12.9 °F5.0 °F71 %30.33 in10.0 miEast (90°)3.5 mphClear
6:53 AM14.0 °F6.1 °F71 %30.34 in10.0 miCalmClear
7:53 AM18.0 °F9.0 °F68 %30.35 in10.0 miEast (80°)3.5 mphClear
8:53 AM25.0 °F12.0 °F58 %30.34 in10.0 miSW (230°)4.6 mphClear
9:53 AM30.0 °F12.0 °F47 %30.30 in10.0 miWest (260°)3.5 mphClear
10:53 AM35.1 °F14.0 °F42 %30.28 in10.0 miSSW (210°)5.8 mphClear
11:53 AM39.0 °F14.0 °F36 %30.25 in10.0 miVariable4.6 mphClear
12:53 PM42.1 °F15.1 °F34 %30.21 in10.0 miCalmClear
1:53 PM44.1 °F18.0 °F35 %30.18 in10.0 miSW (230°)6.9 mphClear
2:53 PM46.0 °F21.0 °F37 %30.15 in10.0 miSW (230°)9.2 mphClear
3:53 PM46.0 °F21.0 °F37 %30.15 in10.0 miSW (230°)9.2 mphClear
4:53 PM46.0 °F21.0 °F37 %30.15 in10.0 miSSW (210°)8.1 mphClear
5:53 PM43.0 °F18.0 °F37 %30.22 in10.0 miWNW (290°)6.9 mphClear
6:53 PM37.9 °F19.0 °F47 %30.28 in10.0 miNW (310°)5.8 mphClear
7:53 PM33.1 °F19.0 °F56 %30.29 in10.0 miCalmClear
8:53 PM30.9 °F18.0 °F59 %30.26 in10.0 miCalmClear
9:53 PM28.9 °F18.0 °F64 %30.24 in10.0 miCalmClear
10:53 PM28.9 °F18.0 °F64 %30.21 in10.0 miCalmClear
11:53 PM28.0 °F17.1 °F63 %30.19 in10.0 miCalmClear
Hourly data recorded from KGUP, located miles away from Gamerco, New Mexico







STORIES FROM OUR PARTNERS